When you browse on this site, cookies collect data to enhance your experience and personalize the content and advertising you see.
Visit our Privacy Policy to learn more. By continuing to use the site, you agree to this use of cookies and data.
  • In Hungary
  • List of Countries
  • For 7 days
  • Water Temperature
  • Weather Map
  • News
  • Weather Widgets
  • user-avatar
    Login

    Hourly Weather Amalner

    Today, 7 April, Tuesday

    Time Temperature Precipitation Wind Pressure Humidity
    00:00 +31°C° 0 mm 3 mps 742 mmHg 34%
    01:00 +30°C° 0 mm 4 mps 742 mmHg 39%
    02:00 +29°C° 0 mm 4 mps 741 mmHg 44%
    03:00 +29°C° 0 mm 4 mps 741 mmHg 48%
    04:00 +28°C° 0 mm 4 mps 741 mmHg 52%
    05:00 +27°C° 0 mm 4 mps 741 mmHg 56%
    06:00 +28°C° 0 mm 4 mps 742 mmHg 50%
    07:00 +30°C° 0 mm 3 mps 742 mmHg 44%
    08:00 +31°C° 0 mm 3 mps 743 mmHg 37%
    09:00 +35°C° 0 mm 3 mps 743 mmHg 30%
    10:00 +37°C° 0 mm 3 mps 743 mmHg 23%
    11:00 +39°C° 0 mm 3 mps 743 mmHg 17%
    12:00 +40°C° 0 mm 3 mps 742 mmHg 15%
    13:00 +42°C° 0 mm 3 mps 741 mmHg 13%
    14:00 +43°C° 0 mm 3 mps 740 mmHg 10%
    15:00 +43°C° 0 mm 3 mps 739 mmHg 10%
    16:00 +44°C° 0 mm 4 mps 739 mmHg 10%
    17:00 +43°C° 0 mm 4 mps 739 mmHg 10%
    18:00 +41°C° 0 mm 5 mps 740 mmHg 12%
    19:00 +40°C° 0 mm 6 mps 740 mmHg 14%
    20:00 +38°C° 0 mm 7 mps 741 mmHg 15%
    21:00 +36°C° 0 mm 6 mps 741 mmHg 17%
    22:00 +34°C° 0 mm 5 mps 741 mmHg 18%
    23:00 +33°C° 0 mm 4 mps 742 mmHg 20%

    Tomorrow, 8 April, Wednesday

    Time Temperature Precipitation Wind Pressure Humidity
    00:00 +30°C° 0 mm 4 mps 741 mmHg 25%
    01:00 +29°C° 0 mm 4 mps 741 mmHg 30%
    02:00 +27°C° 0 mm 4 mps 741 mmHg 35%
    03:00 +26°C° 0 mm 4 mps 741 mmHg 37%
    04:00 +26°C° 0 mm 4 mps 741 mmHg 40%
    05:00 +25°C° 0 mm 4 mps 741 mmHg 42%
    06:00 +27°C° 0 mm 4 mps 742 mmHg 42%
    07:00 +28°C° 0 mm 4 mps 742 mmHg 41%
    08:00 +30°C° 0 mm 5 mps 743 mmHg 40%
    09:00 +33°C° 0 mm 4 mps 743 mmHg 33%
    10:00 +36°C° 0 mm 4 mps 743 mmHg 26%
    11:00 +38°C° 0 mm 3 mps 743 mmHg 19%
    12:00 +41°C° 0 mm 4 mps 742 mmHg 16%
    13:00 +42°C° 0 mm 4 mps 741 mmHg 13%
    14:00 +43°C° 0 mm 4 mps 740 mmHg 10%
    15:00 +43°C° 0 mm 5 mps 740 mmHg 10%
    16:00 +43°C° 0 mm 5 mps 740 mmHg 10%
    17:00 +44°C° 0 mm 6 mps 739 mmHg 9%
    18:00 +41°C° 0 mm 6 mps 740 mmHg 11%
    19:00 +39°C° 0 mm 6 mps 741 mmHg 13%
    20:00 +38°C° 0 mm 7 mps 742 mmHg 14%
    21:00 +35°C° 0 mm 6 mps 742 mmHg 16%
    22:00 +34°C° 0 mm 5 mps 742 mmHg 17%
    23:00 +33°C° 0 mm 4 mps 742 mmHg 18%

    Day after tomorrow, 9 April, Thursday

    Time Temperature Precipitation Wind Pressure Humidity
    00:00 +30°C° 0 mm 4 mps 742 mmHg 26%
    01:00 +29°C° 0 mm 4 mps 742 mmHg 34%
    02:00 +27°C° 0 mm 4 mps 741 mmHg 41%
    03:00 +27°C° 0 mm 4 mps 741 mmHg 46%
    04:00 +26°C° 0 mm 3 mps 742 mmHg 50%
    05:00 +25°C° 0 mm 3 mps 742 mmHg 55%
    06:00 +27°C° 0 mm 3 mps 742 mmHg 52%
    07:00 +28°C° 0 mm 4 mps 743 mmHg 49%
    08:00 +30°C° 0 mm 4 mps 744 mmHg 46%
    09:00 +33°C° 0 mm 4 mps 743 mmHg 38%
    10:00 +36°C° 0 mm 3 mps 743 mmHg 29%
    11:00 +38°C° 0 mm 3 mps 743 mmHg 20%
    12:00 +40°C° 0 mm 3 mps 742 mmHg 17%
    13:00 +42°C° 0 mm 3 mps 741 mmHg 14%
    14:00 +43°C° 0 mm 3 mps 741 mmHg 11%
    15:00 +43°C° 0 mm 3 mps 740 mmHg 11%
    16:00 +43°C° 0 mm 3 mps 740 mmHg 11%
    17:00 +43°C° 0 mm 3 mps 739 mmHg 10%
    18:00 +40°C° 0 mm 2 mps 740 mmHg 11%
    19:00 +38°C° 0 mm 2 mps 741 mmHg 13%
    20:00 +35°C° 0 mm 1 mps 741 mmHg 14%
    21:00 +35°C° 0 mm 2 mps 741 mmHg 15%
    22:00 +34°C° 0 mm 3 mps 742 mmHg 15%
    23:00 +34°C° 0 mm 3 mps 742 mmHg 15%

    10 April, Friday

    Time Temperature Precipitation Wind Pressure Humidity
    00:00 +33°C° 0 mm 4 mps 741 mmHg 18%
    01:00 +32°C° 0 mm 4 mps 741 mmHg 21%
    02:00 +30°C° 0 mm 4 mps 741 mmHg 24%
    03:00 +29°C° 0 mm 4 mps 741 mmHg 30%
    04:00 +28°C° 0 mm 3 mps 741 mmHg 37%
    05:00 +27°C° 0 mm 3 mps 741 mmHg 44%
    06:00 +29°C° 0 mm 3 mps 742 mmHg 39%
    07:00 +32°C° 0 mm 4 mps 743 mmHg 33%
    08:00 +33°C° 0 mm 4 mps 743 mmHg 28%
    09:00 +36°C° 0 mm 4 mps 743 mmHg 22%
    10:00 +39°C° 0 mm 3 mps 743 mmHg 16%
    11:00 +43°C° 0 mm 3 mps 743 mmHg 10%
    12:00 +43°C° 0 mm 2 mps 742 mmHg 9%
    13:00 +43°C° 0 mm 2 mps 741 mmHg 8%
    14:00 +44°C° 0 mm 1 mps 740 mmHg 7%
    15:00 +44°C° 0 mm 1 mps 740 mmHg 7%
    16:00 +44°C° 0 mm 1 mps 740 mmHg 7%
    17:00 +45°C° 0 mm 2 mps 739 mmHg 6%
    18:00 +42°C° 0 mm 2 mps 740 mmHg 8%
    19:00 +40°C° 0 mm 2 mps 741 mmHg 9%
    20:00 +37°C° 0 mm 2 mps 741 mmHg 10%
    21:00 +36°C° 0 mm 2 mps 742 mmHg 11%
    22:00 +36°C° 0 mm 2 mps 742 mmHg 11%
    23:00 +35°C° 0 mm 2 mps 742 mmHg 12%

    11 April, Saturday

    Time Temperature Precipitation Wind Pressure Humidity
    00:00 +34°C° 0 mm 2 mps 742 mmHg 13%
    01:00 +33°C° 0 mm 3 mps 742 mmHg 13%
    02:00 +33°C° 0 mm 3 mps 741 mmHg 14%
    03:00 +31°C° 0 mm 3 mps 741 mmHg 16%
    04:00 +30°C° 0 mm 2 mps 742 mmHg 17%
    05:00 +29°C° 0 mm 2 mps 742 mmHg 19%
    06:00 +31°C° 0 mm 2 mps 743 mmHg 17%
    07:00 +34°C° 0 mm 2 mps 743 mmHg 15%
    08:00 +36°C° 0 mm 2 mps 744 mmHg 13%
    09:00 +38°C° 0 mm 3 mps 744 mmHg 11%
    10:00 +42°C° 0 mm 3 mps 744 mmHg 9%
    11:00 +45°C° 0 mm 4 mps 744 mmHg 7%
    12:00 +45°C° 0 mm 3 mps 743 mmHg 7%
    13:00 +46°C° 0 mm 3 mps 742 mmHg 6%
    14:00 +46°C° 0 mm 2 mps 741 mmHg 6%
    15:00 +46°C° 0 mm 2 mps 740 mmHg 6%
    16:00 +46°C° 0 mm 2 mps 740 mmHg 6%
    17:00 +46°C° 0 mm 2 mps 739 mmHg 6%
    18:00 +43°C° 0 mm 2 mps 740 mmHg 7%
    19:00 +41°C° 0 mm 2 mps 740 mmHg 8%
    20:00 +38°C° 0 mm 2 mps 741 mmHg 9%
    21:00 +37°C° 0 mm 2 mps 741 mmHg 10%
    22:00 +36°C° 0 mm 2 mps 741 mmHg 11%
    23:00 +35°C° 0 mm 2 mps 741 mmHg 12%

    12 April, Sunday

    Time Temperature Precipitation Wind Pressure Humidity
    00:00 +34°C° 0 mm 2 mps 741 mmHg 13%
    01:00 +34°C° 0 mm 3 mps 741 mmHg 13%
    02:00 +33°C° 0 mm 3 mps 740 mmHg 14%
    03:00 +31°C° 0 mm 3 mps 740 mmHg 15%
    04:00 +30°C° 0 mm 2 mps 741 mmHg 16%
    05:00 +29°C° 0 mm 2 mps 741 mmHg 17%
    06:00 +32°C° 0 mm 2 mps 742 mmHg 15%
    07:00 +35°C° 0 mm 2 mps 742 mmHg 13%
    08:00 +37°C° 0 mm 2 mps 743 mmHg 11%
    09:00 +39°C° 0 mm 2 mps 743 mmHg 10%
    10:00 +42°C° 0 mm 3 mps 743 mmHg 9%
    11:00 +44°C° 0 mm 3 mps 742 mmHg 8%
    12:00 +45°C° 0 mm 3 mps 742 mmHg 7%
    13:00 +47°C° 0 mm 4 mps 741 mmHg 7%
    14:00 +48°C° 0 mm 4 mps 740 mmHg 6%
    15:00 +47°C° 0 mm 3 mps 739 mmHg 6%
    16:00 +46°C° 0 mm 2 mps 739 mmHg 6%
    17:00 +46°C° 0 mm 2 mps 738 mmHg 6%
    18:00 +43°C° 0 mm 2 mps 739 mmHg 7%
    19:00 +41°C° 0 mm 2 mps 739 mmHg 7%
    20:00 +38°C° 0 mm 3 mps 740 mmHg 8%
    21:00 +37°C° 0 mm 2 mps 740 mmHg 9%
    22:00 +36°C° 0 mm 2 mps 740 mmHg 9%
    23:00 +35°C° 0 mm 2 mps 740 mmHg 10%
    Show more